Regional Weather Roundup
Issued by NWS

Home | Current Version | Previous Version | Graphics & Text | Print | Product List | Glossary On
Versions: 1 2 3 4 5 6 7 8 9 10 11 12 13 14 15 16 17 18 19 20 21 22 23 24 25 26 27 28 29 30 31 32 33 34 35 36 37 38 39 40 41 42 43 44 45 46 47 48 49 50
937
ASUS44 KMEG 290910
RWRTN
TENNESSEE HOURLY STATE WEATHER ROUNDUP
NATIONAL WEATHER SERVICE MEMPHIS TN
400 AM CDT THU SEP 29 2016

TNZ002-004-019-021-049-052-054-088>092-291000-
WEST TENNESSEE

CITY           SKY/WX    TMP DP  RH WIND       PRES   REMARKS
MEMPHIS INTL   CLEAR     57  47  69 N9        30.11R
NWS MEMPHIS      N/A     53 N/A N/A MISG        N/A
JACKSON          N/A    N/A N/A N/A MISG      30.09F
DYERSBURG      CLEAR    N/A N/A N/A MISG        N/A
UNION CITY     CLEAR     48  46  93 NW3       30.08S
PARIS          CLEAR     46  45  93 CALM      30.08R
HUNTINGDON     CLEAR     50  46  87 CALM      30.07R
LEXINGTON      CLEAR     48  46  93 CALM      30.06F
$$

TNZ008-025-027-028-033-062-065-066-291000-
NORTH MIDDLE TENNESSEE

CITY           SKY/WX    TMP DP  RH WIND       PRES   REMARKS
NASHVILLE      PTCLDY    53  45  74 NW6       30.04S
PORTLAND       CLEAR     48  46  93 CALM      30.03S
CLARKSVILLE    CLEAR     50  45  83 NW6       30.04S
SMYRNA         CLEAR     50  46  86 NW6       30.05R
COOKEVILLE       N/A     48  48 100 CALM      30.01S VSB 1/2
GALLATIN       PTCLDY    50  46  87 CALM      30.06R
CROSSVILLE     MOCLDY    53  50  89 N5        30.01S
$$

TNZ061-075-076-078-094-096-097-291000-
SOUTH MIDDLE TENNESSEE

CITY           SKY/WX    TMP DP  RH WIND       PRES   REMARKS
FAYETTEVILLE   CLOUDY    54  48  82 N7        30.03S
TULLAHOMA      CLEAR     48  46  93 N3        30.03S
WINCHESTER     CLEAR     52  46  82 N3        30.03S
MCMINNVILLE    MOCLDY    48  48 100 CALM      30.02S
COLUMBIA       CLEAR     48  48 100 CALM      30.03S
SHELBYVILLE    CLEAR     48  48 100 CALM      30.05R
$$

TNZ017-018-042-046-047-291000-
NORTHEAST TENNESSEE

CITY           SKY/WX    TMP DP  RH WIND       PRES   REMARKS
TRI CITIES     CLOUDY    58  52  80 CALM      29.97S
ELIZABETHTON   CLOUDY    52  52 100 CALM      29.97S
$$

TNZ012-013-036-069-073-074-291000-
CENTRAL EAST TENNESSEE

CITY           SKY/WX    TMP DP  RH WIND       PRES   REMARKS
KNOXVILLE      CLOUDY    62  55  77 NW7       29.95S
OAK RIDGE      CLOUDY    61  54  77 CALM      29.98S
DOWNTOWN KNOXV PTCLDY    63  57  82 CALM      29.95S
GATLINBURG     CLEAR     54  50  87 CALM      29.95F
MORRISTOWN     MOCLDY    59  54  82 CALM      29.95S
JACKSBORO      CLOUDY    57  55  94 CALM      30.00F
$$

TNZ083-085-099-291000-
SOUTHEAST TENNESSEE

CITY           SKY/WX    TMP DP  RH WIND       PRES   REMARKS
CHATTANOOGA    PTCLDY    60  51  72 NW6       29.98S
$$

SKY/WX REPORTED AS FAIR MEANS FEW OR NO CLOUDS BELOW
12 THOUSAND FEET.





USA.gov is the U.S. government's official web portal to all federal, state and local government web resources and services.